EN

Hourly Weather La Cañada Flintridge

Today, 30 July, Friday

Time Temperature Precipitation Wind Pressure Humidity
00:00 +25°C° 0 mm 1 mps 721 mmHg 45%
01:00 +25°C° 0 mm 1 mps 720 mmHg 46%
02:00 +25°C° 0 mm 1 mps 720 mmHg 47%
03:00 +24°C° 0 mm 1 mps 720 mmHg 48%
04:00 +24°C° 0 mm 1 mps 720 mmHg 49%
05:00 +25°C° 0 mm 1 mps 720 mmHg 47%
06:00 +27°C° 0 mm 1 mps 721 mmHg 46%
07:00 +28°C° 0 mm 1 mps 721 mmHg 44%
08:00 +29°C° 0 mm 1 mps 722 mmHg 40%
09:00 +31°C° 0 mm 2 mps 722 mmHg 36%
10:00 +32°C° 0 mm 2 mps 722 mmHg 33%
11:00 +34°C° 0 mm 3 mps 722 mmHg 31%
12:00 +35°C° 0 mm 3 mps 722 mmHg 29%
13:00 +36°C° 0 mm 4 mps 722 mmHg 27%
14:00 +36°C° 0 mm 3 mps 721 mmHg 27%
15:00 +35°C° 0 mm 3 mps 721 mmHg 28%
16:00 +35°C° 0 mm 3 mps 721 mmHg 28%
17:00 +33°C° 0 mm 3 mps 721 mmHg 32%
18:00 +30°C° 0 mm 2 mps 721 mmHg 37%
19:00 +28°C° 0 mm 2 mps 722 mmHg 41%
20:00 +27°C° 0 mm 2 mps 722 mmHg 44%
21:00 +26°C° 0 mm 2 mps 722 mmHg 48%
22:00 +25°C° 0 mm 2 mps 723 mmHg 51%
23:00 +25°C° 0 mm 2 mps 723 mmHg 52%

Tomorrow, 31 July, Saturday

Time Temperature Precipitation Wind Pressure Humidity
00:00 +25°C° 0 mm 1 mps 723 mmHg 53%
01:00 +24°C° 0 mm 1 mps 723 mmHg 54%
02:00 +24°C° 0 mm 1 mps 722 mmHg 53%
03:00 +24°C° 0 mm 1 mps 722 mmHg 52%
04:00 +24°C° 0 mm 1 mps 722 mmHg 51%
05:00 +25°C° 0 mm 1 mps 723 mmHg 48%
06:00 +26°C° 0 mm 1 mps 723 mmHg 45%
07:00 +28°C° 0 mm 1 mps 723 mmHg 42%
08:00 +29°C° 0 mm 1 mps 724 mmHg 37%
09:00 +31°C° 0 mm 2 mps 724 mmHg 33%
10:00 +33°C° 0 mm 3 mps 724 mmHg 29%
11:00 +34°C° 0 mm 3 mps 724 mmHg 27%
12:00 +35°C° 0 mm 3 mps 724 mmHg 26%
13:00 +35°C° 0 mm 4 mps 723 mmHg 24%
14:00 +35°C° 0 mm 4 mps 723 mmHg 23%
15:00 +35°C° 0 mm 4 mps 723 mmHg 22%
16:00 +35°C° 0 mm 4 mps 723 mmHg 22%
17:00 +33°C° 0 mm 3 mps 723 mmHg 23%
18:00 +31°C° 0 mm 3 mps 723 mmHg 25%
19:00 +29°C° 0 mm 2 mps 723 mmHg 26%
20:00 +28°C° 0 mm 2 mps 723 mmHg 27%
21:00 +27°C° 0 mm 1 mps 723 mmHg 28%
22:00 +27°C° 0 mm 1 mps 723 mmHg 28%
23:00 +26°C° 0 mm 1 mps 723 mmHg 28%

Day after tomorrow, 1 August, Sunday

Time Temperature Precipitation Wind Pressure Humidity
00:00 +26°C° 0 mm 1 mps 723 mmHg 28%
01:00 +26°C° 0 mm 1 mps 723 mmHg 28%
02:00 +25°C° 0 mm 1 mps 723 mmHg 29%
03:00 +25°C° 0 mm 1 mps 723 mmHg 30%
04:00 +25°C° 0 mm 1 mps 723 mmHg 31%
05:00 +26°C° 0 mm 1 mps 723 mmHg 29%
06:00 +27°C° 0 mm 1 mps 724 mmHg 28%
07:00 +29°C° 0 mm 1 mps 724 mmHg 26%
08:00 +30°C° 0 mm 1 mps 724 mmHg 24%
09:00 +32°C° 0 mm 2 mps 724 mmHg 21%
10:00 +34°C° 0 mm 3 mps 724 mmHg 19%
11:00 +35°C° 0 mm 3 mps 724 mmHg 18%
12:00 +36°C° 0 mm 4 mps 724 mmHg 17%
13:00 +37°C° 0 mm 4 mps 724 mmHg 16%
14:00 +37°C° 0 mm 4 mps 724 mmHg 16%
15:00 +36°C° 0 mm 4 mps 723 mmHg 16%
16:00 +36°C° 0 mm 5 mps 723 mmHg 16%
17:00 +34°C° 0 mm 4 mps 723 mmHg 18%
18:00 +31°C° 0 mm 3 mps 723 mmHg 20%
19:00 +29°C° 0 mm 2 mps 723 mmHg 22%
20:00 +29°C° 0 mm 2 mps 723 mmHg 23%
21:00 +28°C° 0 mm 1 mps 723 mmHg 24%
22:00 +27°C° 0 mm 1 mps 723 mmHg 25%
23:00 +27°C° 0 mm 1 mps 723 mmHg 27%

2 August, Monday

Time Temperature Precipitation Wind Pressure Humidity
00:00 +26°C° 0 mm 1 mps 723 mmHg 29%
01:00 +26°C° 0 mm 1 mps 723 mmHg 31%
02:00 +25°C° 0 mm 1 mps 723 mmHg 32%
03:00 +25°C° 0 mm 1 mps 723 mmHg 33%
04:00 +25°C° 0 mm 1 mps 723 mmHg 34%
05:00 +26°C° 0 mm 1 mps 723 mmHg 32%
06:00 +27°C° 0 mm 1 mps 723 mmHg 29%
07:00 +27°C° 0 mm 0 mps 724 mmHg 27%
08:00 +30°C° 0 mm 1 mps 724 mmHg 24%
09:00 +32°C° 0 mm 2 mps 724 mmHg 20%
10:00 +35°C° 0 mm 2 mps 724 mmHg 17%
11:00 +36°C° 0 mm 3 mps 723 mmHg 16%
12:00 +36°C° 0 mm 3 mps 723 mmHg 16%
13:00 +37°C° 0 mm 4 mps 723 mmHg 15%
14:00 +37°C° 0 mm 4 mps 723 mmHg 14%
15:00 +37°C° 0 mm 4 mps 722 mmHg 14%
16:00 +36°C° 0 mm 4 mps 722 mmHg 13%
17:00 +35°C° 0 mm 3 mps 722 mmHg 15%
18:00 +32°C° 0 mm 2 mps 722 mmHg 17%
19:00 +30°C° 0 mm 1 mps 721 mmHg 19%
20:00 +29°C° 0 mm 1 mps 721 mmHg 21%
21:00 +28°C° 0 mm 1 mps 722 mmHg 23%
22:00 +27°C° 0 mm 1 mps 722 mmHg 24%
23:00 +27°C° 0 mm 1 mps 721 mmHg 26%

3 August, Tuesday

Time Temperature Precipitation Wind Pressure Humidity
00:00 +27°C° 0 mm 1 mps 721 mmHg 27%
01:00 +26°C° 0 mm 1 mps 721 mmHg 29%
02:00 +26°C° 0 mm 1 mps 721 mmHg 29%
03:00 +26°C° 0 mm 1 mps 721 mmHg 30%
04:00 +26°C° 0 mm 1 mps 721 mmHg 31%
05:00 +27°C° 0 mm 1 mps 721 mmHg 29%
06:00 +28°C° 0 mm 1 mps 721 mmHg 27%
07:00 +29°C° 0 mm 1 mps 722 mmHg 26%
08:00 +31°C° 0 mm 1 mps 722 mmHg 23%
09:00 +34°C° 0 mm 2 mps 722 mmHg 20%
10:00 +36°C° 0 mm 2 mps 722 mmHg 17%
11:00 +36°C° 0 mm 3 mps 722 mmHg 16%
12:00 +37°C° 0 mm 3 mps 721 mmHg 15%
13:00 +38°C° 0 mm 4 mps 721 mmHg 14%
14:00 +38°C° 0 mm 4 mps 721 mmHg 15%
15:00 +37°C° 0 mm 4 mps 721 mmHg 16%
16:00 +37°C° 0 mm 4 mps 720 mmHg 17%
17:00 +34°C° 0 mm 3 mps 720 mmHg 20%
18:00 +31°C° 0 mm 2 mps 720 mmHg 24%
19:00 +29°C° 0 mm 2 mps 720 mmHg 27%
20:00 +28°C° 0 mm 2 mps 720 mmHg 29%
21:00 +28°C° 0 mm 1 mps 720 mmHg 30%
22:00 +27°C° 0 mm 1 mps 720 mmHg 32%
23:00 +27°C° 0 mm 1 mps 720 mmHg 33%

4 August, Wednesday

Time Temperature Precipitation Wind Pressure Humidity
00:00 +26°C° 0 mm 1 mps 720 mmHg 34%
01:00 +26°C° 0 mm 1 mps 720 mmHg 35%
02:00 +26°C° 0 mm 1 mps 720 mmHg 37%
03:00 +25°C° 0 mm 1 mps 720 mmHg 38%
04:00 +25°C° 0 mm 1 mps 720 mmHg 39%
05:00 +26°C° 0 mm 1 mps 720 mmHg 36%
06:00 +27°C° 0 mm 1 mps 720 mmHg 34%
07:00 +28°C° 0 mm 1 mps 721 mmHg 31%
08:00 +30°C° 0 mm 2 mps 721 mmHg 28%
09:00 +31°C° 0 mm 2 mps 721 mmHg 24%
10:00 +34°C° 0 mm 3 mps 721 mmHg 21%
11:00 +35°C° 0 mm 3 mps 721 mmHg 19%
12:00 +36°C° 0 mm 4 mps 721 mmHg 17%
13:00 +37°C° 0 mm 4 mps 721 mmHg 15%
14:00 +36°C° 0 mm 4 mps 721 mmHg 16%
15:00 +36°C° 0 mm 4 mps 720 mmHg 16%
16:00 +36°C° 0 mm 4 mps 720 mmHg 17%
17:00 +33°C° 0 mm 3 mps 720 mmHg 21%
18:00 +30°C° 0 mm 2 mps 720 mmHg 25%
19:00 +28°C° 0 mm 2 mps 719 mmHg 30%
20:00 +27°C° 0 mm 2 mps 720 mmHg 31%
21:00 +27°C° 0 mm 1 mps 720 mmHg 32%
22:00 +26°C° 0 mm 1 mps 720 mmHg 32%
23:00 +26°C° 0 mm 1 mps 720 mmHg 33%
Show more